Theta_e
287 287 286 286 287 288 287 286 286 285 285 284 284 285 285 285 287 286 286 286 287 285 286 286 286 286 287 286 286 286 286 285 286 286 285 286 284 284 285 284 284 284
287 289 289 287 287 288 287 287 286 286 285 285 285 285 285 285 286 286 286 285 285 285 285 286 286 286 285 285 286 285 285 285 284 288 285 284 284 284 284 284 284 284
286 286 286 285 285 286 286 286 286 285 285 285 285 285 287 287 286 286 285 285 285 285 285 286 285 286 285 285 285 285 284 284 284 284 285 284 284 283 284 284 284 284
285 286 286 286 286 285 286 285 285 285 285 286 285 286 287 288 286 286 286 288 285 285 285 286 285 285 285 285 285 284 284 284 285 285 284 284 285 284 284 284 284 283
284 285 285 285 286 286 285 285 285 285 285 285 285 286 286 286 285 285 285 286 285 285 285 285 285 285 286 285 285 283 285 284 285 284 284 283 284 284 285 284 283 283
285 284 285 285 285 284 284 284 285 285 285 285 285 285 284 286 284 284 284 284 285 284 286 285 285 285 284 285 285 284 284 285 284 284 284 283 283 284 286 285 282 282
284 284 284 285 285 284 284 284 284 285 284 284 285 285 284 285 285 283 284 284 284 284 284 284 284 284 284 284 284 284 284 284 284 284 283 282 284 283 283 283 283 282
284 284 284 284 284 284 284 284 284 284 284 284 283 284 284 284 284 284 284 284 283 283 284 283 284 284 284 284 284 284 283 286 285 283 282 282 282 281 282 284 283 281
285 284 285 284 283 283 283 284 284 283 284 283 283 284 284 284 284 283 284 283 283 284 283 283 283 283 283 284 283 283 282 283 284 283 282 282 281 282 282 282 282 282
285 285 284 284 284 284 283 283 284 284 284 284 284 284 284 284 284 284 284 283 283 283 283 283 283 283 283 283 284 283 282 283 282 282 282 282 282 282 282 282 281 281
284 284 284 284 284 284 284 284 284 284 284 284 284 284 284 284 284 284 284 283 284 283 283 283 283 283 283 283 283 283 283 283 282 282 282 282 282 282 284 282 282 281
284 284 284 284 284 284 284 284 284 284 284 284 284 284 284 284 284 284 285 284 284 283 283 283 283 282 283 282 283 283 283 282 282 282 282 281 281 282 282 282 282 282
284 284 285 284 285 285 285 284 284 284 284 284 284 284 284 284 284 284 284 284 284 283 283 283 283 283 283 282 282 282 282 282 282 282 282 281 281 282 282 282 282 281
285 285 284 285 285 285 285 285 285 284 284 284 284 284 284 284 284 284 284 284 283 283 283 283 282 282 282 282 282 282 282 282 282 281 281 281 281 281 281 281 281 281
285 284 285 285 284 285 285 285 285 284 284 284 284 284 285 285 285 284 283 283 283 283 283 283 283 283 284 283 282 282 282 282 282 281 280 280 280 280 280 281 280 281
284 284 285 284 285 285 285 284 284 284 284 284 284 284 284 284 283 284 283 283 282 282 282 284 284 285 286 287 287 284 282 283 282 280 280 279 279 279 279 280 280 280
283 284 283 283 284 285 284 284 284 284 284 284 284 283 283 283 283 283 282 282 282 282 282 284 285 285 287 289 290 290 285 281 281 280 280 279 278 278 278 279 279 279
284 283 283 283 284 284 284 283 284 283 283 283 283 282 283 283 283 283 283 283 283 282 282 283 283 286 289 289 290 290 288 283 281 280 280 279 279 278 278 278 278 278
283 283 283 283 283 284 284 283 283 283 283 283 283 283 283 282 283 283 283 283 283 283 282 283 282 286 289 289 290 290 289 285 280 280 279 279 278 278 278 278 277 278
283 283 283 283 284 283 283 283 283 283 284 284 284 283 283 283 283 283 284 283 283 283 283 283 282 285 288 289 289 289 288 285 280 280 279 279 278 278 278 278 277 277
283 283 283 283 283 283 283 283 283 283 283 284 284 284 284 284 284 283 284 284 283 283 283 283 283 287 288 289 289 288 286 284 279 280 279 278 278 278 277 277 277 277
283 282 283 283 283 283 283 283 284 284 284 284 283 283 283 283 283 283 283 283 284 283 283 283 283 287 288 289 287 286 285 282 279 278 278 278 277 277 277 276 276 276
282 283 283 283 283 282 282 283 283 283 284 284 283 282 282 282 283 283 283 283 283 283 283 283 282 286 288 287 286 285 284 279 278 278 278 277 276 276 276 276 276 276
283 283 283 283 282 282 283 283 283 283 283 283 282 282 282 282 282 282 282 282 282 282 283 282 281 284 286 285 285 284 283 279 278 277 276 275 275 275 275 275 276 279
283 283 283 282 282 282 283 282 282 282 282 282 282 282 282 281 281 281 280 280 280 280 282 281 278 281 285 284 284 283 282 279 278 276 275 274 274 274 274 275 275 276
283 283 283 283 282 282 282 282 282 281 281 281 280 281 280 280 279 280 279 279 278 278 279 278 278 278 280 282 282 282 282 280 277 276 274 274 274 273 273 273 274 273
Wind_Speed
5 4 5 5 5 5 4 4 4 5 4 4 5 4 4 3 4 4 4 5 5 5 6 6 6 6 5 5 5 5 6 6 5 5 5 5 5 6 5 5 5 5
4 4 4 4 5 4 4 4 4 4 4 4 4 3 3 3 3 4 4 4 4 4 4 4 4 5 5 5 4 5 5 6 5 4 4 4 3 4 4 4 4 4
4 4 4 4 3 3 3 3 4 4 4 4 4 3 2 2 2 2 3 3 3 3 3 4 4 4 4 4 4 4 4 5 5 4 4 4 3 4 3 3 3 3
2 2 3 3 3 1 2 2 2 2 2 4 3 2 1 1 1 1 1 2 2 1 2 2 3 3 3 3 3 4 3 4 3 3 3 3 3 3 3 2 2 3
1 0 1 1 1 1 1 1 1 3 3 3 2 1 2 1 0 1 1 0 1 0 1 1 1 2 1 2 2 2 2 3 2 3 3 3 3 3 3 3 3 3
2 2 2 2 2 2 1 2 1 2 1 0 1 1 2 0 0 1 0 1 0 0 0 0 1 0 1 0 0 1 1 1 0 1 1 2 2 2 3 3 3 3
4 4 3 3 3 4 3 3 3 3 3 3 2 1 3 2 2 2 2 1 1 0 0 0 0 0 1 0 0 0 0 0 0 0 1 2 2 3 2 3 3 3
5 4 4 3 4 4 4 4 4 4 4 3 3 4 3 3 3 3 1 1 1 1 2 2 2 1 1 1 1 1 1 1 0 1 2 2 3 4 3 3 3 4
6 5 5 5 5 4 4 4 4 4 4 4 4 4 4 4 4 4 4 4 3 4 4 3 3 3 3 2 2 2 2 2 2 2 2 3 3 4 4 3 4 4
7 7 7 7 6 6 6 5 5 5 4 5 5 4 4 4 4 4 4 4 4 4 4 4 4 4 4 3 4 3 3 3 3 3 3 3 4 4 4 4 4 4
8 8 8 8 8 7 7 7 6 6 6 6 6 5 5 5 5 5 5 5 6 6 6 5 5 4 4 4 4 4 4 4 4 3 4 4 4 4 5 4 4 4
9 8 9 9 9 8 8 8 8 7 7 6 7 7 6 6 6 6 6 7 7 7 6 6 5 5 5 5 5 4 4 4 4 4 4 4 4 4 4 4 4 4
9 10 10 9 9 9 8 8 8 8 8 8 7 7 7 7 7 7 7 7 8 7 6 6 6 5 6 6 5 5 5 5 4 4 4 4 4 4 4 4 4 4
10 10 9 10 8 8 9 9 9 8 8 7 6 8 8 8 8 8 8 7 7 6 7 6 6 6 6 6 5 6 5 5 5 4 4 4 3 3 4 4 5 5
8 7 8 8 8 8 9 9 9 8 8 7 7 8 8 9 8 8 7 7 6 7 7 6 6 7 6 6 6 6 5 5 5 4 3 3 3 4 4 5 5 5
7 7 8 7 8 10 10 9 8 9 9 9 10 9 8 7 7 8 8 8 8 7 6 6 7 6 9 12 10 6 5 5 4 3 3 3 4 4 5 5 6 6
6 8 7 8 10 9 8 9 9 9 9 9 9 8 8 8 8 9 8 8 8 8 8 8 7 7 13 13 13 13 7 5 4 4 3 4 4 5 6 7 6 5
7 6 7 9 9 10 10 8 7 8 8 8 8 8 9 8 9 10 10 9 9 9 9 9 8 10 14 14 13 11 9 6 5 5 4 4 4 6 6 6 6 6
6 7 8 8 9 10 8 7 7 7 8 8 11 11 8 8 11 10 11 10 10 10 10 10 8 11 14 14 12 11 12 9 6 4 5 5 5 6 6 6 6 7
7 7 8 9 9 8 7 7 8 10 11 10 9 8 9 10 10 11 11 10 10 10 10 9 9 11 14 13 11 13 13 9 4 4 4 4 5 6 7 7 7 7
7 7 9 9 8 7 7 8 10 10 10 9 9 10 10 11 11 11 10 10 10 9 8 8 8 11 12 13 12 14 13 8 3 3 3 4 5 6 7 6 6 7
7 8 8 8 8 7 8 9 10 10 11 10 8 8 8 7 7 7 9 10 9 8 7 9 7 11 12 12 13 12 10 3 3 3 4 5 6 6 6 6 6 7
7 8 8 9 8 8 9 10 10 10 10 7 7 8 8 8 9 9 8 7 7 7 8 8 6 9 11 11 10 9 5 2 2 3 4 5 6 6 6 6 6 6
8 8 9 9 8 9 10 10 9 7 8 7 8 8 9 9 8 6 6 7 7 8 8 7 4 6 10 9 8 8 5 3 3 4 5 6 7 5 5 6 6 11
7 8 8 8 8 9 8 8 8 8 7 5 7 7 8 6 5 6 5 5 5 5 6 5 3 5 8 8 7 7 5 3 4 4 5 6 6 6 5 6 6 7
7 7 8 8 9 8 7 7 6 4 5 5 5 6 6 4 4 5 5 4 3 3 3 4 4 3 3 6 7 9 10 4 3 4 6 7 6 6 7 5 5 6
Wind_Direction
35 42 66 63 59 59 57 65 63 74 84 77 68 63 66 48 35 37 44 46 42 41 39 39 35 31 24 32 45 57 55 43 34 29 30 43 51 35 25 22 17 16
35 30 40 64 54 47 47 62 76 77 71 85 94 75 55 62 38 41 40 52 51 47 44 45 41 35 27 26 35 49 59 50 33 22 25 37 47 44 24 20 13 1
43 48 51 76 87 79 70 54 74 78 84 83 86 79 59 77 82 53 37 59 63 60 54 54 50 36 30 25 30 37 53 56 38 13 22 21 35 44 11 20 2 4
53 62 78 65 78 66 69 72 77 102 97 73 75 102 102 38 94 87 64 53 64 60 70 72 74 61 38 22 40 29 44 55 49 24 16 4 9 39 353 15 350 355
140 155 101 110 99 58 69 74 44 69 93 129 143 218 146 175 100 96 102 6 107 60 69 77 91 94 87 24 43 57 29 59 37 33 15 354 340 10 334 357 343 344
187 176 183 161 166 157 200 158 155 135 148 83 199 201 118 294 176 169 200 181 241 155 170 158 119 207 125 214 26 94 40 69 348 40 358 326 319 335 330 331 332 332
207 197 208 183 188 181 203 189 174 176 180 201 180 236 166 213 227 216 218 182 216 207 207 224 207 256 198 165 196 143 313 196 242 311 301 298 317 314 308 315 311 314
204 200 200 202 201 201 202 214 189 190 195 196 180 220 189 208 235 223 216 251 220 246 242 241 228 227 238 171 219 243 263 241 247 297 306 300 317 309 306 303 306 307
195 197 192 200 202 214 208 216 217 200 198 193 202 214 212 200 220 226 221 228 233 231 239 243 233 230 221 201 220 226 232 244 237 244 270 277 278 281 284 290 302 294
196 198 190 193 200 207 211 212 212 208 203 201 206 209 217 219 209 224 225 227 227 236 235 235 232 227 221 216 218 219 227 236 239 234 239 248 253 258 269 273 273 282
200 197 197 197 199 200 209 211 208 206 205 205 203 210 217 215 221 214 221 224 226 229 233 229 224 218 222 227 226 217 216 224 229 227 231 236 245 251 260 265 267 266
202 199 201 202 201 201 205 208 209 207 207 208 199 209 213 214 215 216 212 220 224 227 225 223 220 217 215 219 221 223 220 220 223 223 226 234 246 257 254 255 255 261
204 205 203 204 202 203 202 203 207 207 204 207 204 206 209 216 219 219 220 215 219 220 222 220 223 222 222 221 220 219 219 221 226 226 229 233 244 245 253 255 264 266
209 208 207 207 205 202 203 205 205 206 208 208 200 207 211 215 217 217 225 219 221 218 222 217 221 228 229 225 221 219 218 219 219 223 229 238 247 263 264 264 260 262
212 211 212 209 208 208 209 209 206 206 206 207 207 209 211 214 217 219 223 227 228 223 223 218 219 227 227 223 221 227 214 218 214 211 224 242 256 256 257 259 262 262
214 213 213 212 211 216 216 210 205 204 204 207 212 212 212 214 217 224 222 223 227 229 225 220 223 226 230 226 222 219 216 205 190 199 224 240 249 259 265 263 263 261
215 219 213 216 219 220 220 212 210 205 205 211 212 209 212 216 218 224 226 225 224 224 225 223 224 227 229 231 233 230 213 199 195 213 216 238 248 258 261 263 264 266
223 221 218 224 224 226 225 219 214 211 212 213 210 212 217 213 217 224 225 226 226 225 226 225 227 229 231 232 232 220 200 190 189 201 215 228 243 250 253 258 266 271
227 222 225 227 227 228 228 221 218 219 220 216 217 218 213 213 222 222 225 224 221 224 226 228 226 230 232 232 232 211 195 178 190 197 216 232 242 253 259 265 269 272
225 223 228 231 231 230 225 223 219 222 224 222 224 218 214 219 223 223 226 224 222 223 227 225 226 226 228 227 217 196 191 190 182 206 218 237 245 253 260 261 262 264
221 221 229 234 232 228 226 226 226 230 228 227 219 219 218 219 222 225 226 228 228 225 226 228 229 221 215 218 189 185 189 196 186 209 227 241 245 248 254 256 260 264
219 223 229 233 232 228 225 230 230 229 232 231 223 226 229 226 233 223 226 227 226 222 222 230 228 210 207 184 176 184 193 191 185 217 235 245 250 251 258 261 261 263
222 224 231 231 229 226 228 231 232 233 235 227 223 226 225 224 226 223 222 223 220 215 215 222 213 198 176 172 179 189 202 175 201 238 248 255 258 258 260 262 264 264
220 219 227 231 228 226 229 232 231 232 231 216 214 223 225 226 225 222 220 210 210 213 207 211 199 176 172 175 188 205 202 186 218 231 247 253 263 259 259 263 258 263
224 222 225 228 229 231 229 233 232 229 232 215 219 219 228 224 216 220 223 219 210 205 189 182 149 151 170 181 199 216 232 215 215 232 255 262 268 273 266 261 268 263
225 224 226 224 230 235 231 232 233 233 230 223 229 218 228 224 214 209 205 203 182 149 133 137 138 134 154 199 222 236 245 228 192 224 256 265 267 271 280 269 260 270